This is the latest recevied weather packets stored in our database for station/object KQ4NAL. If no packets are shown the sender has not sent any weather packets the latest 10 day(s).
| Time | Temp. | Humidity | Pressure | Rain* | Wind** | Luminosity | Snow |
|---|---|---|---|---|---|---|---|
| 1778076126 | 10° C | 85% | 1013.1 hPa | 0 mm | - | 466 W/m² | - |
| 1778075823 | 10° C | 87% | 1012.6 hPa | 0 mm | - | 399 W/m² | - |
| 1778075519 | 10° C | 90% | 1012.8 hPa | 0 mm | - | 347 W/m² | - |
| 1778075216 | 9.44° C | 91% | 1013.1 hPa | 0 mm | - | 288 W/m² | - |
| 1778074912 | 9.44° C | 94% | 1013.1 hPa | 0 mm | - | 266 W/m² | - |
| 1778074609 | 8.89° C | 95% | 1013.2 hPa | 0 mm | - | 211 W/m² | - |
| 1778074306 | 8.89° C | 98% | 1013.5 hPa | 0 mm | - | 386 W/m² | - |
| 1778074003 | 8.33° C | 98% | 1013.2 hPa | 0 mm | - | 400 W/m² | - |
| 1778073700 | 8.33° C | 99% | 1013.2 hPa | 0 mm | - | 300 W/m² | - |
| 1778073397 | 7.78° C | 99% | 1013 hPa | 0 mm | - | 319 W/m² | - |
| 1778073093 | 7.78° C | 99% | 1012.7 hPa | 0 mm | - | 154 W/m² | - |
| 1778072790 | 7.78° C | 99% | 1012.4 hPa | 0 mm | - | 154 W/m² | - |
| 1778072488 | 7.78° C | 99% | 1012.3 hPa | 0 mm | - | 268 W/m² | - |
| 1778072186 | 7.22° C | 99% | 1012.7 hPa | 0 mm | - | 201 W/m² | - |
| 1778071883 | 7.22° C | 99% | 1012.8 hPa | 0 mm | - | 154 W/m² | - |
| 1778071581 | 7.22° C | 99% | 1012.7 hPa | 0 mm | - | 168 W/m² | - |
| 1778071279 | 7.78° C | 99% | 1012.4 hPa | 0 mm | - | 144 W/m² | - |
| 1778070976 | 7.22° C | 99% | 1012.4 hPa | 0 mm | - | 141 W/m² | - |
| 1778070675 | 7.22° C | 99% | 1012.7 hPa | 0 mm | - | 142 W/m² | - |
| 1778070371 | 7.22° C | 99% | 1012.3 hPa | 0 mm | - | 129 W/m² | - |
| 1778070069 | 6.67° C | 99% | 1012.3 hPa | 0 mm | - | 135 W/m² | - |
| 1778069766 | 6.67° C | 99% | 1012.5 hPa | 0 mm | - | 127 W/m² | - |
| 1778069462 | 6.67° C | 99% | 1012.2 hPa | 0 mm | - | 107 W/m² | - |
| 1778069161 | 6.67° C | 99% | 1012 hPa | 0 mm | - | 89 W/m² | - |
| 1778068857 | 6.67° C | 99% | 1012 hPa | 0 mm | - | 81 W/m² | - |
* Rain latest hour (hover to see other rain measurements)
** Current wind speed in m/s (hover to see current wind gust speed)